Location: Baix
(44.7118°N, 4.7648°E)
Time: 11:16:17
(UTC+00:00)

Transit 2A - Visible Passes

Search period start: 30 November 2020 00:00
Search period end: 10 December 2020 00:00
Orbit: 595 x 964 km, 66.7° (Epoch: 29 November)

Date Brightness Start Highest point End Pass type
(mag) Time Alt. Az. Time Alt. Az. Time Alt. Az.
30 Nov 6.5 16:33:10 10° SSW 16:39:30 75° ESE 16:45:30 10° NE visible
30 Nov 8.1 18:18:08 10° W 18:23:17 26° NW 18:27:19 14° N visible
01 Dec 7.7 17:43:16 10° WSW 17:48:53 34° NW 17:54:11 10° NNE visible
01 Dec 8.8 19:32:32 10° NW 19:33:56 11° NNW 19:34:41 11° NNW visible
02 Dec 7.4 17:08:35 10° WSW 17:14:33 44° NW 17:20:12 10° NNE visible
02 Dec 8.6 18:56:34 10° NW 18:59:17 13° NNW 19:01:31 11° N visible
03 Dec 7.0 16:34:04 10° SW 16:40:16 58° NW 16:46:08 10° NNE visible
03 Dec 8.5 18:21:03 10° WNW 18:24:42 16° NNW 18:28:12 10° N visible
04 Dec 8.4 17:45:47 10° W 17:50:10 20° NW 17:54:22 10° N visible
05 Dec 8.1 17:10:42 10° W 17:15:42 25° NW 17:20:26 10° NNE visible
06 Dec 7.8 16:35:48 10° WSW 16:41:18 32° NW 16:46:29 10° NNE visible
06 Dec 8.7 18:25:48 10° NNW 18:26:23 10° NNW 18:26:58 10° NNW visible
07 Dec 8.5 17:49:21 10° NW 17:51:44 12° NNW 17:54:02 10° N visible
08 Dec 8.4 17:13:44 10° WNW 17:17:08 15° NNW 17:20:23 10° N visible
09 Dec 8.3 16:38:24 10° W 16:42:35 19° NW 16:46:35 10° N visible
